Weather History for Grand Marais Airport, MN

Change the Weather History Date:

Wednesday, January 23, 2013

  Actual Average Record
Temperature  
Mean Temperature -11 °F -  
Max Temperature -4 °F 14 °F 28 °F (2003)
Min Temperature -20 °F 0 °F -27 °F (2011)
Degree Days  
Heating Degree Days 76    
Moisture  
Dew Point -19 °F    
Average Humidity 67    
Maximum Humidity 71    
Minimum Humidity 59    
Precipitation  
Precipitation 0.00 in - - ()
Sea Level Pressure  
Sea Level Pressure 30.06 in    
Wind  
Wind Speed 10 mph (NW)    
Max Wind Speed 20 mph    
Max Gust Speed 29 mph    
Visibility 8 miles    
Events      
Averages and records for this station are not official NWS values.
T = Trace of Precipitation, MM = Missing Value Source: NWS Daily Summary

Daily Weather History Graph

Daily Weather History Graph

Search for Another Location

Airport:

Trip Planner

Search our weather history database for the weather conditions in past years. The results will help you decide how hot, cold, wet, or windy it might be!

Date:

Astronomy

Jan. 23, 2013 Rise Set
Actual Time 7:38 AM CST 4:48 PM CST
Civil Twilight 7:04 AM CST 5:22 PM CST
Nautical Twilight 6:26 AM CST 6:00 PM CST
Astronomical Twilight 5:50 AM CST 6:37 PM CST
Moon 1:55 PM CST (1/23) 4:54 AM CST (1/23)
Length of Visible Light 10h 17m
Length of Day
9h 09m
Waxing Gibbous, 89% of the Moon is Illuminated
Jan 23
Waxing Gibbous
Jan 26
Full
Feb 3
Last Quarter
Feb 10
New
Feb 17
First Quarter

Hourly Weather History & Observations

Time (CST) Temp. Windchill Dew Point Humidity Pressure Visibility Wind Dir Wind Speed Gust Speed Precip Events Conditions
12:13 AM -9.4 °F -28.9 °F -16.6 °F 71% 29.99 in 10.0 mi WNW 11.5 mph 18.4 mph N/A   Scattered Clouds
12:34 AM -9.4 °F -24.3 °F -16.6 °F 71% 29.98 in 10.0 mi West 6.9 mph - N/A   Scattered Clouds
12:54 AM -9.4 °F -22.7 °F -18.4 °F 65% 29.97 in 10.0 mi West 5.8 mph - N/A   Clear
1:14 AM -9.4 °F -24.3 °F -16.6 °F 71% 29.97 in 10.0 mi West 6.9 mph - N/A   Scattered Clouds
1:34 AM -9.4 °F -20.9 °F -16.6 °F 71% 29.96 in 10.0 mi WNW 4.6 mph - N/A   Scattered Clouds
1:53 AM -9.4 °F -24.3 °F -16.6 °F 71% 29.97 in 10.0 mi West 6.9 mph - N/A   Scattered Clouds
2:14 AM -9.4 °F -22.7 °F -16.6 °F 71% 29.96 in 10.0 mi West 5.8 mph - N/A   Scattered Clouds
2:34 AM -9.4 °F -22.7 °F -16.6 °F 71% 29.95 in 10.0 mi West 5.8 mph - N/A   Scattered Clouds
2:42 AM -9.4 °F -25.6 °F -16.6 °F 71% 29.95 in 10.0 mi West 8.1 mph - N/A   Clear
3:13 AM -9.4 °F -26.8 °F -16.6 °F 71% 29.95 in 10.0 mi WNW 9.2 mph 18.4 mph N/A   Mostly Cloudy
3:33 AM -9.4 °F -26.8 °F -16.6 °F 71% 29.95 in 10.0 mi WNW 9.2 mph 16.1 mph N/A   Mostly Cloudy
3:54 AM -9.4 °F -24.3 °F -16.6 °F 71% 29.94 in 10.0 mi WNW 6.9 mph - N/A   Overcast
4:14 AM -9.4 °F -24.3 °F -16.6 °F 71% 29.94 in 10.0 mi NW 6.9 mph - N/A   Overcast
4:33 AM -9.4 °F -24.3 °F -16.6 °F 71% 29.93 in 10.0 mi WNW 6.9 mph - N/A   Mostly Cloudy
4:53 AM -9.4 °F -22.7 °F -16.6 °F 71% 29.92 in 10.0 mi WNW 5.8 mph - N/A   Overcast
5:14 AM -9.4 °F -20.9 °F -16.6 °F 71% 29.92 in 10.0 mi NW 4.6 mph - N/A   Overcast
5:33 AM -9.4 °F -20.9 °F -16.6 °F 71% 29.92 in 10.0 mi WNW 4.6 mph - N/A   Overcast
5:54 AM -9.4 °F -20.9 °F -16.6 °F 71% 29.92 in 10.0 mi WNW 4.6 mph - N/A   Overcast
6:14 AM -9.4 °F -20.9 °F -16.6 °F 71% 29.92 in 10.0 mi WNW 4.6 mph - N/A   Overcast
6:33 AM -9.4 °F -22.7 °F -16.6 °F 71% 29.91 in 10.0 mi WNW 5.8 mph - N/A   Mostly Cloudy
6:53 AM -11.2 °F -27.8 °F -18.4 °F 70% 29.91 in 7.0 mi WNW 8.1 mph - N/A   Mostly Cloudy
7:14 AM -11.2 °F -26.4 °F -18.4 °F 70% 29.91 in 10.0 mi WNW 6.9 mph - N/A   Overcast
7:34 AM -11.2 °F -24.8 °F -18.4 °F 70% 29.90 in 10.0 mi WNW 5.8 mph - N/A   Overcast
7:53 AM -11.2 °F -23.0 °F -18.4 °F 70% 29.90 in 7.0 mi WNW 4.6 mph - N/A   Overcast
8:14 AM -9.4 °F -22.7 °F -18.4 °F 65% 29.90 in 7.0 mi WNW 5.8 mph - N/A   Overcast
8:34 AM -9.4 °F -20.9 °F -18.4 °F 65% 29.91 in 7.0 mi NW 4.6 mph - N/A   Mostly Cloudy
8:53 AM -9.4 °F -25.6 °F -18.4 °F 65% 29.90 in 7.0 mi NW 8.1 mph - N/A   Mostly Cloudy
9:14 AM -9.4 °F -26.8 °F -16.6 °F 71% 29.90 in 10.0 mi NW 9.2 mph - N/A   Scattered Clouds
9:34 AM -9.4 °F -24.3 °F -16.6 °F 71% 29.91 in 10.0 mi NW 6.9 mph - N/A   Scattered Clouds
9:53 AM -9.4 °F -24.3 °F -16.6 °F 71% 29.91 in 10.0 mi NW 6.9 mph - N/A   Scattered Clouds
10:13 AM -7.6 °F -22.1 °F -16.6 °F 65% 29.91 in 10.0 mi NW 6.9 mph - N/A   Clear
10:34 AM -7.6 °F -25.7 °F -16.6 °F 65% 29.92 in 7.0 mi NW 10.4 mph 17.3 mph N/A   Scattered Clouds
10:54 AM -5.8 °F -24.4 °F -14.8 °F 65% 29.93 in 7.0 mi NW 11.5 mph - N/A   Clear
11:14 AM -5.8 °F -26.8 °F -14.8 °F 65% 29.92 in 2.5 mi NW 15.0 mph 21.9 mph N/A   Haze
11:33 AM -5.8 °F -26.0 °F -14.8 °F 65% 29.92 in 2.5 mi NW 13.8 mph 23.0 mph N/A   Haze
11:54 AM -5.8 °F -26.8 °F -16.6 °F 60% 29.93 in 3.0 mi NW 15.0 mph 24.2 mph N/A   Haze
12:14 PM -5.8 °F -26.8 °F -14.8 °F 65% 29.93 in 4.0 mi NW 15.0 mph 21.9 mph N/A   Haze
12:33 PM -5.8 °F -26.8 °F -14.8 °F 65% 29.94 in 2.5 mi NW 15.0 mph 21.9 mph N/A   Haze
12:54 PM -4.0 °F -21.2 °F -14.8 °F 60% 29.95 in 3.0 mi NW 10.4 mph 20.7 mph N/A   Haze
1:14 PM -5.8 °F -23.4 °F -14.8 °F 65% 29.96 in 3.0 mi NW 10.4 mph 24.2 mph N/A   Haze
1:33 PM -5.8 °F -28.2 °F -16.6 °F 60% 29.98 in 3.0 mi NNW 17.3 mph 26.5 mph N/A   Haze
1:54 PM -5.8 °F -25.2 °F -16.6 °F 60% 30.00 in 5.0 mi NW 12.7 mph 26.5 mph N/A   Haze
2:14 PM -5.8 °F -26.0 °F -16.6 °F 60% 30.02 in 5.0 mi NW 13.8 mph 24.2 mph N/A   Haze
2:33 PM -5.8 °F -28.8 °F -16.6 °F 60% 30.03 in 3.0 mi NW 18.4 mph 28.8 mph N/A   Haze
3:14 PM -7.6 °F -29.8 °F -16.6 °F 65% 30.09 in 4.0 mi NW 16.1 mph 21.9 mph N/A   Haze
3:33 PM -7.6 °F -28.3 °F -16.6 °F 65% 30.11 in 2.0 mi NNW 13.8 mph 23.0 mph N/A   Haze
3:54 PM -7.6 °F -28.3 °F -16.6 °F 65% 30.12 in 5.0 mi NNW 13.8 mph 18.4 mph N/A   Haze
4:13 PM -7.6 °F -30.5 °F -18.4 °F 59% 30.13 in 7.0 mi NW 17.3 mph 28.8 mph N/A   Scattered Clouds
4:33 PM -9.4 °F -29.8 °F -18.4 °F 65% 30.16 in 7.0 mi NW 12.7 mph 26.5 mph N/A   Clear
4:54 PM -9.4 °F -29.8 °F -18.4 °F 65% 30.17 in 10.0 mi NW 12.7 mph 25.3 mph N/A   Clear
5:13 PM -9.4 °F -29.8 °F -18.4 °F 65% 30.18 in 10.0 mi NW 12.7 mph 21.9 mph N/A   Clear
5:34 PM -9.4 °F -31.4 °F -20.2 °F 59% 30.20 in 10.0 mi NW 15.0 mph 21.9 mph N/A   Clear
5:53 PM -9.4 °F -34.1 °F -20.2 °F 59% 30.20 in 10.0 mi NNW 19.6 mph 28.8 mph N/A   Clear
6:14 PM -11.2 °F -36.4 °F -20.2 °F 64% 30.22 in 10.0 mi NNW 19.6 mph 26.5 mph N/A   Clear
6:34 PM -11.2 °F -33.7 °F -20.2 °F 64% 30.23 in 10.0 mi NNW 15.0 mph 25.3 mph N/A   Clear
6:53 PM -11.2 °F -35.2 °F -20.2 °F 64% 30.25 in 10.0 mi NNW 17.3 mph 26.5 mph N/A   Clear
7:14 PM -13.0 °F -36.8 °F -20.2 °F 70% 30.27 in 10.0 mi NNW 16.1 mph 19.6 mph N/A   Clear
7:34 PM -13.0 °F -38.2 °F -20.2 °F 70% 30.28 in 10.0 mi NNW 18.4 mph 25.3 mph N/A   Clear
7:54 PM -14.8 °F -39.1 °F -22.0 °F 70% 30.29 in 10.0 mi NW 16.1 mph 24.2 mph N/A   Clear
8:13 PM -14.8 °F -37.5 °F -23.8 °F 64% 30.29 in 10.0 mi NNW 13.8 mph 24.2 mph N/A   Clear
8:34 PM -14.8 °F -37.5 °F -23.8 °F 64% 30.31 in 7.0 mi NNW 13.8 mph 17.3 mph N/A   Clear
8:54 PM -16.6 °F -39.8 °F -23.8 °F 70% 30.32 in 10.0 mi NNW 13.8 mph 20.7 mph N/A   Clear
9:13 PM -16.6 °F -36.8 °F -25.6 °F 64% 30.34 in 10.0 mi NW 10.4 mph 20.7 mph N/A   Clear
9:33 PM -16.6 °F -35.7 °F -25.6 °F 64% 30.34 in 10.0 mi NNW 9.2 mph 20.7 mph N/A   Clear
9:54 PM -18.4 °F -42.1 °F -25.6 °F 70% 30.35 in 10.0 mi NNW 13.8 mph 18.4 mph N/A   Clear
10:14 PM -18.4 °F -36.6 °F -25.6 °F 70% 30.36 in 10.0 mi NNW 8.1 mph 17.3 mph N/A   Clear
10:33 PM -18.4 °F -42.1 °F -25.6 °F 70% 30.37 in 10.0 mi NW 13.8 mph 18.4 mph N/A   Clear
10:53 PM -18.4 °F -39.1 °F -27.4 °F 63% 30.38 in 10.0 mi NNW 10.4 mph 19.6 mph N/A   Clear
11:13 PM -18.4 °F -42.1 °F -27.4 °F 63% 30.39 in 10.0 mi NNW 13.8 mph 20.7 mph N/A   Scattered Clouds
11:33 PM -18.4 °F -37.9 °F -27.4 °F 63% 30.40 in 10.0 mi NW 9.2 mph 16.1 mph N/A   Clear
11:54 PM -20.2 °F -37.3 °F -27.4 °F 69% 30.41 in 10.0 mi NW 6.9 mph - N/A   Clear